Torna al catalogo

COSMOS 1823 DEB

AttivoLEO
NORAD 19005·DEBRIS·🇷🇺 Russia

Lanciato Feb 20, 1987 da Plesetsk Cosmodrome

Loading…

Prossimi Passaggi (prossime 24 ore)

TLE

AggiornatoSource: Space-Track

Epoca: Sep 14, 2026, 12:35 UTC

1 19005U 87020BA  26257.52475789 -.00000040  00000-0 -17262-3 0  9998
2 19005  73.8711 190.7131 0033061  15.8638 100.2719 12.43370101756617

Traccia COSMOS 1823 DEB in tempo reale con AllMySat

Download on the App Store